No particular awareness of the weather is required.    There are no Weather-warnings


Meteo18 Weather Cam more information Meteo18 Weather Cam


Thunder radar more information blitzortung!


Rain radar more information rain snow radar


Visit our other weather sites:

Template documentation
and downloads

And another site



Weather Underground History page Text

Daily Summary for February 10, 2018 Units:  Both    English   Metric
« Previous Day
Next Day »
Daily Weekly Monthly Yearly Custom
  High: Low: Average:
Temperature: TemperatureC °F /  -17.8 °C -3.4 °F /  -19.7 °C 0.4 °F /  -17.6 °C
Dew Point: DewpointC °F /  -17.8 °C -4.1 °F /  -20.1 °C -1.2 °F /  -18.4 °C
Humidity: Humidity % 78 % 89 %
Wind Speed: WindSpeedKMH mph /  0 km/h - 4.1 mph /  6.6 km/h
Wind Gust: WindSpeedGustKMH mph /  0 km/h - -
Wind:- - WSW
Pressure: PressurehPa in /  0 hPa 1016.1 in /  34405.1 hPa -
Precipitation: 6.1 in /  154.94 mm    
Historical Graphs
 
 
Tabular Data for February 10, 2018
Time Temperature Dew Point Pressure Wind Wind Speed Wind Gust Humidity Rainfall Rate (Hourly)
TemperatureC °F /  -17.8 °C DewpointC °F /  -17.8 °C PressurehPa in /  0 hPa Calm     Humidity % HourlyPrecipMM in /  0 mm
00:01 0.5 °F /  -17.5 °C -0.4 °F /  -18 °C 1018.2 in /  34476.3 hPa WNW 7.9 mph /  12.7 km/h 12.9 mph /  20.8 km/h 94 % 0.0 in /  0 mm
00:07 0.4 °F /  -17.6 °C -0.5 °F /  -18.1 °C 1018.2 in /  34476.3 hPa NNW 3.2 mph /  5.1 km/h 9.7 mph /  15.6 km/h 94 % 0.0 in /  0 mm
00:13 0.4 °F /  -17.6 °C -0.5 °F /  -18.1 °C 1018.2 in /  34476.3 hPa WSW 1.4 mph /  2.3 km/h 4.8 mph /  7.7 km/h 94 % 0.0 in /  0 mm
00:19 0.5 °F /  -17.5 °C -0.4 °F /  -18 °C 1018.2 in /  34476.3 hPa WNW 3.2 mph /  5.1 km/h 8.0 mph /  12.9 km/h 94 % 0.0 in /  0 mm
00:25 0.6 °F /  -17.4 °C -0.3 °F /  -17.9 °C 1018.2 in /  34476.3 hPa West 3.2 mph /  5.1 km/h 8.0 mph /  12.9 km/h 94 % 0.0 in /  0 mm
00:31 0.7 °F /  -17.4 °C -0.2 °F /  -17.9 °C 1018.2 in /  34476.3 hPa WNW 7.9 mph /  12.7 km/h 11.3 mph /  18.2 km/h 94 % 0.3 in /  7.62 mm
00:37 0.7 °F /  -17.4 °C -0.3 °F /  -17.9 °C 1018.2 in /  34476.3 hPa WNW 9.7 mph /  15.6 km/h 9.7 mph /  15.6 km/h 93 % 0.3 in /  7.62 mm
00:43 0.7 °F /  -17.4 °C -0.3 °F /  -17.9 °C 1018.5 in /  34486.4 hPa NW 4.7 mph /  7.6 km/h 14.5 mph /  23.3 km/h 93 % 0.3 in /  7.62 mm
00:49 0.7 °F /  -17.4 °C -0.3 °F /  -17.9 °C 1018.5 in /  34486.4 hPa NNW 6.4 mph /  10.3 km/h 12.9 mph /  20.8 km/h 93 % 0.3 in /  7.62 mm
00:55 0.7 °F /  -17.4 °C -0.3 °F /  -17.9 °C 1018.5 in /  34486.4 hPa NW 7.9 mph /  12.7 km/h 11.3 mph /  18.2 km/h 93 % 0.3 in /  7.62 mm
01:01 0.7 °F /  -17.4 °C -0.3 °F /  -17.9 °C 1018.5 in /  34486.4 hPa NW 1.4 mph /  2.3 km/h 16.1 mph /  25.9 km/h 93 % 0.3 in /  7.62 mm
01:07 0.8 °F /  -17.3 °C -0.4 °F /  -18 °C 1018.5 in /  34486.4 hPa West 1.4 mph /  2.3 km/h 8.0 mph /  12.9 km/h 92 % 0.3 in /  7.62 mm
01:13 0.7 °F /  -17.4 °C -0.5 °F /  -18.1 °C 1018.5 in /  34486.4 hPa WNW 3.2 mph /  5.1 km/h 9.7 mph /  15.6 km/h 92 % 0.3 in /  7.62 mm
01:19 0.8 °F /  -17.3 °C -0.4 °F /  -18 °C 1018.8 in /  34496.6 hPa NW 1.4 mph /  2.3 km/h 11.3 mph /  18.2 km/h 92 % 0.3 in /  7.62 mm
01:25 0.8 °F /  -17.3 °C -0.4 °F /  -18 °C 1018.8 in /  34496.6 hPa Calm   8.0 mph /  12.9 km/h 92 % 0.3 in /  7.62 mm
01:31 0.8 °F /  -17.3 °C -0.4 °F /  -18 °C 1018.8 in /  34496.6 hPa WNW 6.4 mph /  10.3 km/h 9.7 mph /  15.6 km/h 92 % 0.0 in /  0 mm
01:37 0.8 °F /  -17.3 °C -0.4 °F /  -18 °C 1018.8 in /  34496.6 hPa NW 1.4 mph /  2.3 km/h 6.4 mph /  10.3 km/h 92 % 0.0 in /  0 mm
01:43 0.9 °F /  -17.3 °C -0.3 °F /  -17.9 °C 1018.8 in /  34496.6 hPa WNW 3.2 mph /  5.1 km/h 12.9 mph /  20.8 km/h 92 % 0.0 in /  0 mm
01:49 0.9 °F /  -17.3 °C -0.3 °F /  -17.9 °C 1018.8 in /  34496.6 hPa WNW 14.3 mph /  23 km/h 14.5 mph /  23.3 km/h 92 % 0.0 in /  0 mm
01:55 0.9 °F /  -17.3 °C -0.4 °F /  -18 °C 1018.8 in /  34496.6 hPa NW 6.4 mph /  10.3 km/h 12.9 mph /  20.8 km/h 91 % 0.0 in /  0 mm
02:01 0.8 °F /  -17.3 °C -0.4 °F /  -18 °C 1018.8 in /  34496.6 hPa West 4.7 mph /  7.6 km/h 17.7 mph /  28.5 km/h 92 % 0.0 in /  0 mm
02:07 0.8 °F /  -17.3 °C -0.4 °F /  -18 °C 1018.8 in /  34496.6 hPa NW 17.7 mph /  28.5 km/h 17.7 mph /  28.5 km/h 92 % 0.0 in /  0 mm
02:13 0.8 °F /  -17.3 °C -0.4 °F /  -18 °C 1018.8 in /  34496.6 hPa WSW 3.2 mph /  5.1 km/h 11.3 mph /  18.2 km/h 92 % 0.0 in /  0 mm
02:19 0.8 °F /  -17.3 °C -0.4 °F /  -18 °C 1018.8 in /  34496.6 hPa WNW 7.9 mph /  12.7 km/h 16.1 mph /  25.9 km/h 92 % 0.0 in /  0 mm
02:25 0.8 °F /  -17.3 °C -0.5 °F /  -18.1 °C 1018.8 in /  34496.6 hPa WNW 11.1 mph /  17.9 km/h 14.5 mph /  23.3 km/h 91 % 0.0 in /  0 mm
02:31 0.8 °F /  -17.3 °C -0.5 °F /  -18.1 °C 1018.8 in /  34496.6 hPa WNW 9.7 mph /  15.6 km/h 16.1 mph /  25.9 km/h 91 % 0.0 in /  0 mm
02:37 0.7 °F /  -17.4 °C -0.6 °F /  -18.1 °C 1018.8 in /  34496.6 hPa NNW 6.4 mph /  10.3 km/h 14.5 mph /  23.3 km/h 91 % 0.0 in /  0 mm
02:43 0.6 °F /  -17.4 °C -0.7 °F /  -18.2 °C 1019.2 in /  34510.1 hPa NW 3.2 mph /  5.1 km/h 12.9 mph /  20.8 km/h 91 % 0.0 in /  0 mm
02:49 0.4 °F /  -17.6 °C -0.7 °F /  -18.2 °C 1019.2 in /  34510.1 hPa WNW 11.1 mph /  17.9 km/h 12.9 mph /  20.8 km/h 92 % 0.0 in /  0 mm
02:55 0.3 °F /  -17.6 °C -0.8 °F /  -18.2 °C 1019.2 in /  34510.1 hPa NW 6.4 mph /  10.3 km/h 14.5 mph /  23.3 km/h 92 % 0.0 in /  0 mm
03:01 0.2 °F /  -17.7 °C -0.9 °F /  -18.3 °C 1019.2 in /  34510.1 hPa WNW 6.4 mph /  10.3 km/h 14.5 mph /  23.3 km/h 92 % 0.0 in /  0 mm
03:07 0.2 °F /  -17.7 °C -0.9 °F /  -18.3 °C 1019.2 in /  34510.1 hPa WNW 3.2 mph /  5.1 km/h 14.5 mph /  23.3 km/h 92 % 0.0 in /  0 mm
03:13 0.1 °F /  -17.7 °C -1.0 °F /  -18.3 °C 1019.2 in /  34510.1 hPa WNW 3.2 mph /  5.1 km/h 14.5 mph /  23.3 km/h 92 % 0.0 in /  0 mm
03:19 0.1 °F /  -17.7 °C -1.0 °F /  -18.3 °C 1019.2 in /  34510.1 hPa WNW 4.7 mph /  7.6 km/h 11.3 mph /  18.2 km/h 92 % 0.0 in /  0 mm
03:25 0.1 °F /  -17.7 °C -1.0 °F /  -18.3 °C 1019.2 in /  34510.1 hPa WNW 11.1 mph /  17.9 km/h 14.5 mph /  23.3 km/h 92 % 0.0 in /  0 mm
03:31 0.2 °F /  -17.7 °C -0.9 °F /  -18.3 °C 1019.2 in /  34510.1 hPa WNW 4.7 mph /  7.6 km/h 11.3 mph /  18.2 km/h 92 % 0.0 in /  0 mm
03:37 0.2 °F /  -17.7 °C -0.9 °F /  -18.3 °C 1019.2 in /  34510.1 hPa NW 4.7 mph /  7.6 km/h 11.3 mph /  18.2 km/h 92 % 0.0 in /  0 mm
03:43 0.1 °F /  -17.7 °C -1.0 °F /  -18.3 °C 1019.2 in /  34510.1 hPa WNW 4.7 mph /  7.6 km/h 9.7 mph /  15.6 km/h 92 % 0.0 in /  0 mm
03:50 0.0 °F /  -17.8 °C -1.1 °F /  -18.4 °C 1019.2 in /  34510.1 hPa Calm   8.0 mph /  12.9 km/h 92 % 0.0 in /  0 mm
03:56 -0.1 °F /  -17.8 °C -1.2 °F /  -18.4 °C 1019.2 in /  34510.1 hPa WNW 4.7 mph /  7.6 km/h 8.0 mph /  12.9 km/h 92 % 0.0 in /  0 mm
04:02 -0.1 °F /  -17.8 °C -1.1 °F /  -18.4 °C 1019.2 in /  34510.1 hPa NW 4.7 mph /  7.6 km/h 9.7 mph /  15.6 km/h 93 % 0.0 in /  0 mm
04:08 -0.2 °F /  -17.9 °C -1.3 °F /  -18.5 °C 1019.2 in /  34510.1 hPa NW 4.7 mph /  7.6 km/h 9.7 mph /  15.6 km/h 92 % 0.0 in /  0 mm
04:14 -0.2 °F /  -17.9 °C -1.3 °F /  -18.5 °C 1019.5 in /  34520.3 hPa WNW 4.7 mph /  7.6 km/h 8.0 mph /  12.9 km/h 92 % 0.0 in /  0 mm
04:20 -0.2 °F /  -17.9 °C -1.3 °F /  -18.5 °C 1019.2 in /  34510.1 hPa WNW 1.4 mph /  2.3 km/h 4.8 mph /  7.7 km/h 92 % 0.0 in /  0 mm
04:26 -0.3 °F /  -17.9 °C -1.3 °F /  -18.5 °C 1019.2 in /  34510.1 hPa WNW 3.2 mph /  5.1 km/h 6.4 mph /  10.3 km/h 93 % 0.0 in /  0 mm
04:32 -0.3 °F /  -17.9 °C -1.4 °F /  -18.6 °C 1019.2 in /  34510.1 hPa Calm   3.2 mph /  5.1 km/h 92 % 0.0 in /  0 mm
04:38 -0.3 °F /  -17.9 °C -1.4 °F /  -18.6 °C 1019.5 in /  34520.3 hPa North 11.1 mph /  17.9 km/h 11.3 mph /  18.2 km/h 92 % 0.0 in /  0 mm
04:44 -0.4 °F /  -18 °C -1.5 °F /  -18.6 °C 1019.5 in /  34520.3 hPa NW 9.7 mph /  15.6 km/h 11.3 mph /  18.2 km/h 92 % 0.0 in /  0 mm
04:50 -0.4 °F /  -18 °C -1.5 °F /  -18.6 °C 1019.5 in /  34520.3 hPa West 3.2 mph /  5.1 km/h 8.0 mph /  12.9 km/h 92 % 0.0 in /  0 mm
04:56 -0.4 °F /  -18 °C -1.5 °F /  -18.6 °C 1019.5 in /  34520.3 hPa Calm   9.7 mph /  15.6 km/h 92 % 0.0 in /  0 mm
05:02 -0.5 °F /  -18.1 °C -1.6 °F /  -18.7 °C 1019.5 in /  34520.3 hPa WNW 3.2 mph /  5.1 km/h 11.3 mph /  18.2 km/h 92 % 0.0 in /  0 mm
05:08 -0.5 °F /  -18.1 °C -1.6 °F /  -18.7 °C 1019.5 in /  34520.3 hPa WNW 3.2 mph /  5.1 km/h 6.4 mph /  10.3 km/h 92 % 0.0 in /  0 mm
05:14 -0.7 °F /  -18.2 °C -2.0 °F /  -18.9 °C 1019.5 in /  34520.3 hPa West 1.4 mph /  2.3 km/h 3.2 mph /  5.1 km/h 91 % 0.0 in /  0 mm
05:20 -0.6 °F /  -18.1 °C -1.7 °F /  -18.7 °C 1019.5 in /  34520.3 hPa West 3.2 mph /  5.1 km/h 3.2 mph /  5.1 km/h 92 % 0.0 in /  0 mm
05:26 -0.8 °F /  -18.2 °C -1.9 °F /  -18.8 °C 1019.5 in /  34520.3 hPa WNW 1.4 mph /  2.3 km/h 8.0 mph /  12.9 km/h 92 % 0.0 in /  0 mm
05:32 -0.9 °F /  -18.3 °C -2.2 °F /  -19 °C 1019.5 in /  34520.3 hPa WNW 1.4 mph /  2.3 km/h 6.4 mph /  10.3 km/h 91 % 0.0 in /  0 mm
05:38 -1.0 °F /  -18.3 °C -2.1 °F /  -18.9 °C 1019.5 in /  34520.3 hPa WNW 3.2 mph /  5.1 km/h 8.0 mph /  12.9 km/h 92 % 0.0 in /  0 mm
05:44 -1.0 °F /  -18.3 °C -2.1 °F /  -18.9 °C 1019.9 in /  34533.8 hPa West 3.2 mph /  5.1 km/h 8.0 mph /  12.9 km/h 92 % 0.0 in /  0 mm
05:50 -0.9 °F /  -18.3 °C -2.2 °F /  -19 °C 1019.9 in /  34533.8 hPa West 1.4 mph /  2.3 km/h 4.8 mph /  7.7 km/h 91 % 0.0 in /  0 mm
05:56 -1.0 °F /  -18.3 °C -2.3 °F /  -19.1 °C 1019.9 in /  34533.8 hPa WNW 1.4 mph /  2.3 km/h 3.2 mph /  5.1 km/h 91 % 0.0 in /  0 mm
06:02 -1.2 °F /  -18.4 °C -2.5 °F /  -19.2 °C 1019.9 in /  34533.8 hPa WNW 3.2 mph /  5.1 km/h 4.8 mph /  7.7 km/h 91 % 0.0 in /  0 mm
06:08 -1.3 °F /  -18.5 °C -2.4 °F /  -19.1 °C 1019.9 in /  34533.8 hPa WNW 3.2 mph /  5.1 km/h 9.7 mph /  15.6 km/h 92 % 0.0 in /  0 mm
06:14 -1.2 °F /  -18.4 °C -2.3 °F /  -19.1 °C 1019.9 in /  34533.8 hPa WNW 3.2 mph /  5.1 km/h 3.2 mph /  5.1 km/h 92 % 0.0 in /  0 mm
06:20 -1.2 °F /  -18.4 °C -2.3 °F /  -19.1 °C 1019.9 in /  34533.8 hPa NW 3.2 mph /  5.1 km/h 3.2 mph /  5.1 km/h 92 % 0.0 in /  0 mm
06:26 -1.3 °F /  -18.5 °C -2.4 °F /  -19.1 °C 1019.9 in /  34533.8 hPa WNW 3.2 mph /  5.1 km/h 4.8 mph /  7.7 km/h 92 % 0.0 in /  0 mm
06:32 -1.3 °F /  -18.5 °C -2.4 °F /  -19.1 °C 1019.9 in /  34533.8 hPa NW 1.4 mph /  2.3 km/h 3.2 mph /  5.1 km/h 92 % 0.0 in /  0 mm
06:38 -1.3 °F /  -18.5 °C -2.4 °F /  -19.1 °C 1020.2 in /  34544 hPa NNW 1.4 mph /  2.3 km/h 4.8 mph /  7.7 km/h 92 % 0.0 in /  0 mm
06:44 -1.4 °F /  -18.6 °C -2.5 °F /  -19.2 °C 1020.2 in /  34544 hPa Calm   3.2 mph /  5.1 km/h 92 % 0.0 in /  0 mm
06:50 -1.6 °F /  -18.7 °C -2.9 °F /  -19.4 °C 1020.2 in /  34544 hPa West 1.4 mph /  2.3 km/h 4.8 mph /  7.7 km/h 91 % 0.0 in /  0 mm
06:56 -1.7 °F /  -18.7 °C -2.8 °F /  -19.3 °C 1020.2 in /  34544 hPa Calm   3.2 mph /  5.1 km/h 92 % 0.0 in /  0 mm
07:02 -1.9 °F /  -18.8 °C -3.2 °F /  -19.6 °C 1020.5 in /  34554.1 hPa Calm     91 % 0.0 in /  0 mm
07:08 -2.4 °F /  -19.1 °C -3.7 °F /  -19.8 °C 1020.5 in /  34554.1 hPa SE 1.4 mph /  2.3 km/h 1.6 mph /  2.6 km/h 91 % 0.0 in /  0 mm
07:14 -2.6 °F /  -19.2 °C -3.7 °F /  -19.8 °C 1020.5 in /  34554.1 hPa Calm   1.6 mph /  2.6 km/h 92 % 0.0 in /  0 mm
07:20 -2.8 °F /  -19.3 °C -3.8 °F /  -19.9 °C 1020.5 in /  34554.1 hPa Calm   1.6 mph /  2.6 km/h 93 % 0.0 in /  0 mm
07:26 -3.0 °F /  -19.4 °C -4.0 °F /  -20 °C 1020.5 in /  34554.1 hPa Calm     93 % 0.0 in /  0 mm
07:32 -3.1 °F /  -19.5 °C -3.9 °F /  -19.9 °C 1020.5 in /  34554.1 hPa Calm     94 % 0.0 in /  0 mm
07:38 -3.0 °F /  -19.4 °C -3.8 °F /  -19.9 °C 1020.5 in /  34554.1 hPa Calm     94 % 0.0 in /  0 mm
07:44 -2.8 °F /  -19.3 °C -3.5 °F /  -19.7 °C 1020.5 in /  34554.1 hPa Calm     95 % 0.0 in /  0 mm
07:50 -2.9 °F /  -19.4 °C -3.6 °F /  -19.8 °C 1020.9 in /  34567.7 hPa Calm     95 % 0.0 in /  0 mm
07:56 -3.1 °F /  -19.5 °C -3.9 °F /  -19.9 °C 1020.9 in /  34567.7 hPa Calm     94 % 0.0 in /  0 mm
08:02 -3.1 °F /  -19.5 °C -3.8 °F /  -19.9 °C 1020.9 in /  34567.7 hPa Calm     95 % 0.0 in /  0 mm
08:08 -3.3 °F /  -19.6 °C -4.0 °F /  -20 °C 1020.9 in /  34567.7 hPa Calm     95 % 0.0 in /  0 mm
08:14 -3.4 °F /  -19.7 °C -4.1 °F /  -20.1 °C 1021.2 in /  34577.8 hPa Calm   1.6 mph /  2.6 km/h 95 % 0.0 in /  0 mm
08:20 -3.3 °F /  -19.6 °C -4.0 °F /  -20 °C 1021.2 in /  34577.8 hPa Calm   1.6 mph /  2.6 km/h 95 % 0.0 in /  0 mm
08:26 -3.3 °F /  -19.6 °C -4.0 °F /  -20 °C 1021.2 in /  34577.8 hPa Calm     95 % 0.0 in /  0 mm
08:32 -3.4 °F /  -19.7 °C -4.1 °F /  -20.1 °C 1021.2 in /  34577.8 hPa Calm     95 % 0.0 in /  0 mm
08:38 -3.3 °F /  -19.6 °C -4.0 °F /  -20 °C 1021.6 in /  34591.4 hPa Calm     95 % 0.0 in /  0 mm
08:44 -3.2 °F /  -19.6 °C -3.9 °F /  -19.9 °C 1021.2 in /  34577.8 hPa Calm     95 % 0.0 in /  0 mm
08:50 -3.1 °F /  -19.5 °C -3.8 °F /  -19.9 °C 1021.2 in /  34577.8 hPa Calm     95 % 0.0 in /  0 mm
08:56 -3.1 °F /  -19.5 °C -3.8 °F /  -19.9 °C 1021.6 in /  34591.4 hPa Calm     95 % 0.0 in /  0 mm
09:02 -2.8 °F /  -19.3 °C -3.5 °F /  -19.7 °C 1021.6 in /  34591.4 hPa Calm     95 % 0.0 in /  0 mm
09:08 -2.9 °F /  -19.4 °C -3.7 °F /  -19.8 °C 1021.6 in /  34591.4 hPa Calm     94 % 0.0 in /  0 mm
09:14 -2.6 °F /  -19.2 °C -3.3 °F /  -19.6 °C 1021.6 in /  34591.4 hPa Calm     95 % 0.0 in /  0 mm
09:20 -2.2 °F /  -19 °C -3.0 °F /  -19.4 °C 1021.6 in /  34591.4 hPa Calm     94 % 0.0 in /  0 mm
09:26 -2.2 °F /  -19 °C -3.3 °F /  -19.6 °C 1021.6 in /  34591.4 hPa Calm     92 % 0.0 in /  0 mm
09:32 -2.1 °F /  -18.9 °C -3.1 °F /  -19.5 °C 1021.9 in /  34601.5 hPa Calm   1.6 mph /  2.6 km/h 93 % 0.0 in /  0 mm
09:38 -2.2 °F /  -19 °C -3.6 °F /  -19.8 °C 1021.9 in /  34601.5 hPa SE 1.4 mph /  2.3 km/h 1.6 mph /  2.6 km/h 90 % 0.0 in /  0 mm
09:46 -2.5 °F /  -19.2 °C -3.9 °F /  -19.9 °C 1021.9 in /  34601.5 hPa Calm   1.6 mph /  2.6 km/h 90 % 0.0 in /  0 mm
09:52 -2.5 °F /  -19.2 °C -3.9 °F /  -19.9 °C 1021.9 in /  34601.5 hPa Calm   1.6 mph /  2.6 km/h 90 % 0.0 in /  0 mm
09:58 -2.2 °F /  -19 °C -3.5 °F /  -19.7 °C 1022.2 in /  34611.7 hPa Calm     91 % 0.0 in /  0 mm
10:04 -1.5 °F /  -18.6 °C -2.8 °F /  -19.3 °C 1022.2 in /  34611.7 hPa South 1.4 mph /  2.3 km/h 1.6 mph /  2.6 km/h 91 % 0.0 in /  0 mm
10:10 -1.3 °F /  -18.5 °C -2.9 °F /  -19.4 °C 1021.9 in /  34601.5 hPa Calm     89 % 0.0 in /  0 mm
10:17 -0.9 °F /  -18.3 °C -2.6 °F /  -19.2 °C 1021.9 in /  34601.5 hPa Calm   1.6 mph /  2.6 km/h 88 % 0.0 in /  0 mm
10:23 -0.5 °F /  -18.1 °C -2.4 °F /  -19.1 °C 1021.9 in /  34601.5 hPa Calm     87 % 0.0 in /  0 mm
10:29 0.2 °F /  -17.7 °C -1.7 °F /  -18.7 °C 1021.9 in /  34601.5 hPa Calm     87 % 0.0 in /  0 mm
10:35 -0.1 °F /  -17.8 °C -2.6 °F /  -19.2 °C 1021.9 in /  34601.5 hPa Calm   1.6 mph /  2.6 km/h 83 % 0.0 in /  0 mm
10:41 -0.1 °F /  -17.8 °C -2.2 °F /  -19 °C 1021.9 in /  34601.5 hPa Calm   1.6 mph /  2.6 km/h 86 % 0.0 in /  0 mm
10:47 0.2 °F /  -17.7 °C -2.0 °F /  -18.9 °C 1021.9 in /  34601.5 hPa Calm     85 % 0.0 in /  0 mm
10:53 0.4 °F /  -17.6 °C -2.0 °F /  -18.9 °C 1021.9 in /  34601.5 hPa Calm     84 % 0.0 in /  0 mm
10:59 0.1 °F /  -17.7 °C -2.4 °F /  -19.1 °C 1021.9 in /  34601.5 hPa SE 1.4 mph /  2.3 km/h 1.6 mph /  2.6 km/h 83 % 0.0 in /  0 mm
11:05 0.2 °F /  -17.7 °C -2.0 °F /  -18.9 °C 1021.9 in /  34601.5 hPa ESE 1.4 mph /  2.3 km/h 1.6 mph /  2.6 km/h 85 % 0.0 in /  0 mm
11:11 -0.4 °F /  -18 °C -2.8 °F /  -19.3 °C 1021.9 in /  34601.5 hPa SE 1.4 mph /  2.3 km/h 3.2 mph /  5.1 km/h 84 % 0.0 in /  0 mm
11:17 -0.1 °F /  -17.8 °C -1.8 °F /  -18.8 °C 1021.9 in /  34601.5 hPa Calm   3.2 mph /  5.1 km/h 88 % 0.0 in /  0 mm
11:23 0.2 °F /  -17.7 °C -1.7 °F /  -18.7 °C 1021.9 in /  34601.5 hPa Calm   1.6 mph /  2.6 km/h 87 % 0.0 in /  0 mm
11:29 0.5 °F /  -17.5 °C -1.6 °F /  -18.7 °C 1021.9 in /  34601.5 hPa SW 3.2 mph /  5.1 km/h 3.2 mph /  5.1 km/h 86 % 0.3 in /  7.62 mm
11:35 0.4 °F /  -17.6 °C -1.5 °F /  -18.6 °C 1021.9 in /  34601.5 hPa Calm   3.2 mph /  5.1 km/h 87 % 0.3 in /  7.62 mm
11:41 0.6 °F /  -17.4 °C -1.3 °F /  -18.5 °C 1021.9 in /  34601.5 hPa Calm   1.6 mph /  2.6 km/h 87 % 0.3 in /  7.62 mm
11:47 0.8 °F /  -17.3 °C -1.1 °F /  -18.4 °C 1021.9 in /  34601.5 hPa Calm   1.6 mph /  2.6 km/h 87 % 0.3 in /  7.62 mm
11:53 1.1 °F /  -17.2 °C -0.8 °F /  -18.2 °C 1021.9 in /  34601.5 hPa SE 1.4 mph /  2.3 km/h 1.6 mph /  2.6 km/h 87 % 0.3 in /  7.62 mm
11:59 1.2 °F /  -17.1 °C -0.9 °F /  -18.3 °C 1021.9 in /  34601.5 hPa Calm   3.2 mph /  5.1 km/h 86 % 0.5 in /  12.7 mm
12:05 1.2 °F /  -17.1 °C -1.0 °F /  -18.3 °C 1021.9 in /  34601.5 hPa SW 4.7 mph /  7.6 km/h 4.8 mph /  7.7 km/h 85 % 0.5 in /  12.7 mm
12:11 0.7 °F /  -17.4 °C -1.4 °F /  -18.6 °C 1021.6 in /  34591.4 hPa SSW 4.7 mph /  7.6 km/h 4.8 mph /  7.7 km/h 86 % 0.5 in /  12.7 mm
12:17 0.7 °F /  -17.4 °C -1.1 °F /  -18.4 °C 1021.6 in /  34591.4 hPa SSW 4.7 mph /  7.6 km/h 6.4 mph /  10.3 km/h 88 % 0.5 in /  12.7 mm
12:23 0.7 °F /  -17.4 °C -1.1 °F /  -18.4 °C 1021.6 in /  34591.4 hPa SW 4.7 mph /  7.6 km/h 6.4 mph /  10.3 km/h 88 % 0.5 in /  12.7 mm
12:29 0.6 °F /  -17.4 °C -1.2 °F /  -18.4 °C 1021.6 in /  34591.4 hPa SSW 4.7 mph /  7.6 km/h 8.0 mph /  12.9 km/h 88 % 0.5 in /  12.7 mm
12:35 0.4 °F /  -17.6 °C -1.2 °F /  -18.4 °C 1021.6 in /  34591.4 hPa SW 7.9 mph /  12.7 km/h 9.7 mph /  15.6 km/h 89 % 0.5 in /  12.7 mm
12:41 0.4 °F /  -17.6 °C -1.0 °F /  -18.3 °C 1021.6 in /  34591.4 hPa SSW 4.7 mph /  7.6 km/h 8.0 mph /  12.9 km/h 90 % 0.5 in /  12.7 mm
12:47 0.6 °F /  -17.4 °C -0.9 °F /  -18.3 °C 1021.6 in /  34591.4 hPa SSW 7.9 mph /  12.7 km/h 8.0 mph /  12.9 km/h 90 % 0.5 in /  12.7 mm
12:53 0.7 °F /  -17.4 °C -0.9 °F /  -18.3 °C 1021.6 in /  34591.4 hPa SSW 3.2 mph /  5.1 km/h 8.0 mph /  12.9 km/h 89 % 0.8 in /  20.32 mm
12:59 0.8 °F /  -17.3 °C -0.8 °F /  -18.2 °C 1021.6 in /  34591.4 hPa SSW 4.7 mph /  7.6 km/h 8.0 mph /  12.9 km/h 89 % 0.5 in /  12.7 mm
13:05 0.9 °F /  -17.3 °C -0.6 °F /  -18.1 °C 1021.6 in /  34591.4 hPa SSW 4.7 mph /  7.6 km/h 9.7 mph /  15.6 km/h 90 % 0.5 in /  12.7 mm
13:11 0.9 °F /  -17.3 °C -0.6 °F /  -18.1 °C 1021.6 in /  34591.4 hPa South 6.4 mph /  10.3 km/h 9.7 mph /  15.6 km/h 90 % 0.8 in /  20.32 mm
13:17 0.9 °F /  -17.3 °C -0.6 °F /  -18.1 °C 1021.6 in /  34591.4 hPa SSW 7.9 mph /  12.7 km/h 11.3 mph /  18.2 km/h 90 % 0.5 in /  12.7 mm
13:23 1.2 °F /  -17.1 °C -0.3 °F /  -17.9 °C 1021.2 in /  34577.8 hPa SSW 7.9 mph /  12.7 km/h 11.3 mph /  18.2 km/h 90 % 0.8 in /  20.32 mm
13:29 1.3 °F /  -17.1 °C -0.2 °F /  -17.9 °C 1021.2 in /  34577.8 hPa South 9.7 mph /  15.6 km/h 11.3 mph /  18.2 km/h 90 % 0.8 in /  20.32 mm
13:35 1.3 °F /  -17.1 °C -0.2 °F /  -17.9 °C 1021.2 in /  34577.8 hPa SW 7.9 mph /  12.7 km/h 11.3 mph /  18.2 km/h 90 % 0.5 in /  12.7 mm
13:41 1.3 °F /  -17.1 °C -0.2 °F /  -17.9 °C 1021.2 in /  34577.8 hPa SSW 9.7 mph /  15.6 km/h 11.3 mph /  18.2 km/h 90 % 0.8 in /  20.32 mm
13:47 1.4 °F /  -17 °C -0.1 °F /  -17.8 °C 1021.2 in /  34577.8 hPa SW 13.0 mph /  20.9 km/h 14.5 mph /  23.3 km/h 90 % 0.8 in /  20.32 mm
13:53 1.4 °F /  -17 °C -0.1 °F /  -17.8 °C 1020.9 in /  34567.7 hPa South 7.9 mph /  12.7 km/h 11.3 mph /  18.2 km/h 90 % 0.8 in /  20.32 mm
13:59 1.6 °F /  -16.9 °C 0.3 °F /  -17.6 °C 1020.9 in /  34567.7 hPa SW 4.7 mph /  7.6 km/h 9.7 mph /  15.6 km/h 91 % 1.0 in /  25.4 mm
14:06 1.8 °F /  -16.8 °C 0.2 °F /  -17.7 °C 1020.9 in /  34567.7 hPa SW 7.9 mph /  12.7 km/h 9.7 mph /  15.6 km/h 89 % 1.0 in /  25.4 mm
14:12 1.8 °F /  -16.8 °C 0.2 °F /  -17.7 °C 1020.9 in /  34567.7 hPa SSW 9.7 mph /  15.6 km/h 12.9 mph /  20.8 km/h 89 % 1.0 in /  25.4 mm
14:17 1.8 °F /  -16.8 °C 0.3 °F /  -17.6 °C 1020.9 in /  34567.7 hPa SSW 6.4 mph /  10.3 km/h 9.7 mph /  15.6 km/h 90 % 1.3 in /  33.02 mm
14:24 2.0 °F /  -16.7 °C 0.4 °F /  -17.6 °C 1020.5 in /  34554.1 hPa SSW 9.7 mph /  15.6 km/h 11.3 mph /  18.2 km/h 89 % 1.0 in /  25.4 mm
14:30 2.1 °F /  -16.6 °C 0.5 °F /  -17.5 °C 1020.5 in /  34554.1 hPa SSW 9.7 mph /  15.6 km/h 14.5 mph /  23.3 km/h 89 % 1.3 in /  33.02 mm
14:36 2.2 °F /  -16.6 °C 0.4 °F /  -17.6 °C 1020.5 in /  34554.1 hPa SSW 9.7 mph /  15.6 km/h 11.3 mph /  18.2 km/h 88 % 1.5 in /  38.1 mm
14:42 2.3 °F /  -16.5 °C 0.5 °F /  -17.5 °C 1020.9 in /  34567.7 hPa SW 9.7 mph /  15.6 km/h 9.7 mph /  15.6 km/h 88 % 1.3 in /  33.02 mm
14:48 2.6 °F /  -16.3 °C 0.7 °F /  -17.4 °C 1020.5 in /  34554.1 hPa SW 6.4 mph /  10.3 km/h 9.7 mph /  15.6 km/h 87 % 1.3 in /  33.02 mm
14:54 2.6 °F /  -16.3 °C 0.7 °F /  -17.4 °C 1020.5 in /  34554.1 hPa SSW 9.7 mph /  15.6 km/h 12.9 mph /  20.8 km/h 87 % 1.5 in /  38.1 mm
15:00 2.8 °F /  -16.2 °C 0.7 °F /  -17.4 °C 1020.5 in /  34554.1 hPa SW 6.4 mph /  10.3 km/h 11.3 mph /  18.2 km/h 86 % 1.3 in /  33.02 mm
15:06 2.9 °F /  -16.2 °C 0.8 °F /  -17.3 °C 1020.5 in /  34554.1 hPa SW 7.9 mph /  12.7 km/h 11.3 mph /  18.2 km/h 86 % 1.5 in /  38.1 mm
15:12 2.8 °F /  -16.2 °C 0.5 °F /  -17.5 °C 1020.5 in /  34554.1 hPa SSW 6.4 mph /  10.3 km/h 12.9 mph /  20.8 km/h 85 % 1.5 in /  38.1 mm
15:18 2.8 °F /  -16.2 °C 0.5 °F /  -17.5 °C 1020.5 in /  34554.1 hPa SW 9.7 mph /  15.6 km/h 14.5 mph /  23.3 km/h 85 % 1.5 in /  38.1 mm
15:24 3.1 °F /  -16.1 °C 1.1 °F /  -17.2 °C 1020.5 in /  34554.1 hPa WSW 9.7 mph /  15.6 km/h 11.3 mph /  18.2 km/h 87 % 1.5 in /  38.1 mm
15:30 3.2 °F /  -16 °C 0.9 °F /  -17.3 °C 1020.2 in /  34544 hPa SW 11.1 mph /  17.9 km/h 12.9 mph /  20.8 km/h 85 % 1.5 in /  38.1 mm
15:36 3.1 °F /  -16.1 °C 0.7 °F /  -17.4 °C 1020.2 in /  34544 hPa SW 7.9 mph /  12.7 km/h 11.3 mph /  18.2 km/h 84 % 1.5 in /  38.1 mm
15:42 3.1 °F /  -16.1 °C 0.7 °F /  -17.4 °C 1020.2 in /  34544 hPa SW 7.9 mph /  12.7 km/h 11.3 mph /  18.2 km/h 84 % 1.5 in /  38.1 mm
15:48 3.2 °F /  -16 °C 0.6 °F /  -17.4 °C 1020.2 in /  34544 hPa SW 11.1 mph /  17.9 km/h 14.5 mph /  23.3 km/h 83 % 1.5 in /  38.1 mm
15:54 3.2 °F /  -16 °C 0.8 °F /  -17.3 °C 1020.2 in /  34544 hPa SW 11.1 mph /  17.9 km/h 12.9 mph /  20.8 km/h 84 % 1.5 in /  38.1 mm
16:00 3.3 °F /  -15.9 °C 0.9 °F /  -17.3 °C 1020.2 in /  34544 hPa South 3.2 mph /  5.1 km/h 9.7 mph /  15.6 km/h 84 % 1.5 in /  38.1 mm
16:06 3.4 °F /  -15.9 °C 1.0 °F /  -17.2 °C 1019.9 in /  34533.8 hPa WSW 3.2 mph /  5.1 km/h 6.4 mph /  10.3 km/h 84 % 1.5 in /  38.1 mm
16:12 3.4 °F /  -15.9 °C 0.8 °F /  -17.3 °C 1019.9 in /  34533.8 hPa WNW 9.7 mph /  15.6 km/h 9.7 mph /  15.6 km/h 83 % 1.5 in /  38.1 mm
16:18 3.3 °F /  -15.9 °C 0.7 °F /  -17.4 °C 1019.9 in /  34533.8 hPa West 1.4 mph /  2.3 km/h 8.0 mph /  12.9 km/h 83 % 1.5 in /  38.1 mm
16:24 3.2 °F /  -16 °C 0.6 °F /  -17.4 °C 1019.9 in /  34533.8 hPa SW 7.9 mph /  12.7 km/h 12.9 mph /  20.8 km/h 83 % 1.3 in /  33.02 mm
16:30 3.3 °F /  -15.9 °C 0.9 °F /  -17.3 °C 1019.9 in /  34533.8 hPa WSW 6.4 mph /  10.3 km/h 9.7 mph /  15.6 km/h 84 % 1.3 in /  33.02 mm
16:36 3.2 °F /  -16 °C 0.6 °F /  -17.4 °C 1019.9 in /  34533.8 hPa SW 3.2 mph /  5.1 km/h 8.0 mph /  12.9 km/h 83 % 1.0 in /  25.4 mm
16:42 3.1 °F /  -16.1 °C 0.5 °F /  -17.5 °C 1019.9 in /  34533.8 hPa West 7.9 mph /  12.7 km/h 8.0 mph /  12.9 km/h 83 % 1.3 in /  33.02 mm
16:48 3.2 °F /  -16 °C 0.4 °F /  -17.6 °C 1019.9 in /  34533.8 hPa WSW 3.2 mph /  5.1 km/h 6.4 mph /  10.3 km/h 82 % 1.0 in /  25.4 mm
16:54 3.3 °F /  -15.9 °C 0.4 °F /  -17.6 °C 1019.9 in /  34533.8 hPa WSW 4.7 mph /  7.6 km/h 8.0 mph /  12.9 km/h 81 % 0.8 in /  20.32 mm
17:00 3.4 °F /  -15.9 °C 0.3 °F /  -17.6 °C 1019.9 in /  34533.8 hPa WSW 4.7 mph /  7.6 km/h 8.0 mph /  12.9 km/h 80 % 0.8 in /  20.32 mm
17:06 3.4 °F /  -15.9 °C 0.1 °F /  -17.7 °C 1019.9 in /  34533.8 hPa West 3.2 mph /  5.1 km/h 6.4 mph /  10.3 km/h 79 % 0.8 in /  20.32 mm
17:12 3.4 °F /  -15.9 °C 0.1 °F /  -17.7 °C 1019.9 in /  34533.8 hPa West 3.2 mph /  5.1 km/h 4.8 mph /  7.7 km/h 79 % 0.5 in /  12.7 mm
17:18 3.4 °F /  -15.9 °C 0.1 °F /  -17.7 °C 1019.9 in /  34533.8 hPa West 1.4 mph /  2.3 km/h 9.7 mph /  15.6 km/h 79 % 0.5 in /  12.7 mm
17:24 3.3 °F /  -15.9 °C -0.2 °F /  -17.9 °C 1019.9 in /  34533.8 hPa WSW 6.4 mph /  10.3 km/h 9.7 mph /  15.6 km/h 78 % 0.8 in /  20.32 mm
17:30 3.3 °F /  -15.9 °C -0.2 °F /  -17.9 °C 1019.9 in /  34533.8 hPa SW 4.7 mph /  7.6 km/h 4.8 mph /  7.7 km/h 78 % 0.5 in /  12.7 mm
17:36 3.1 °F /  -16.1 °C -0.2 °F /  -17.9 °C 1019.9 in /  34533.8 hPa Calm   3.2 mph /  5.1 km/h 79 % 0.5 in /  12.7 mm
17:42 2.8 °F /  -16.2 °C -0.5 °F /  -18.1 °C 1019.9 in /  34533.8 hPa SW 4.7 mph /  7.6 km/h 9.7 mph /  15.6 km/h 79 % 0.5 in /  12.7 mm
17:48 2.6 °F /  -16.3 °C -0.5 °F /  -18.1 °C 1019.9 in /  34533.8 hPa WSW 1.4 mph /  2.3 km/h 6.4 mph /  10.3 km/h 80 % 0.5 in /  12.7 mm
17:54 2.4 °F /  -16.4 °C -0.7 °F /  -18.2 °C 1019.9 in /  34533.8 hPa WSW 6.4 mph /  10.3 km/h 6.4 mph /  10.3 km/h 80 % 0.5 in /  12.7 mm
18:00 2.3 °F /  -16.5 °C -0.6 °F /  -18.1 °C 1019.9 in /  34533.8 hPa WSW 1.4 mph /  2.3 km/h 3.2 mph /  5.1 km/h 81 % 0.3 in /  7.62 mm
18:06 2.2 °F /  -16.6 °C -0.6 °F /  -18.1 °C 1019.9 in /  34533.8 hPa SW 3.2 mph /  5.1 km/h 4.8 mph /  7.7 km/h 82 % 0.3 in /  7.62 mm
18:12 2.1 °F /  -16.6 °C -0.7 °F /  -18.2 °C 1019.9 in /  34533.8 hPa SW 4.7 mph /  7.6 km/h 8.0 mph /  12.9 km/h 82 % 0.3 in /  7.62 mm
18:18 2.1 °F /  -16.6 °C -0.7 °F /  -18.2 °C 1019.5 in /  34520.3 hPa SW 4.7 mph /  7.6 km/h 4.8 mph /  7.7 km/h 82 % 0.3 in /  7.62 mm
18:24 2.0 °F /  -16.7 °C -0.7 °F /  -18.2 °C 1019.5 in /  34520.3 hPa SW 3.2 mph /  5.1 km/h 6.4 mph /  10.3 km/h 82 % 0.0 in /  0 mm
18:30 1.7 °F /  -16.8 °C -0.9 °F /  -18.3 °C 1019.5 in /  34520.3 hPa SSW 3.2 mph /  5.1 km/h 8.0 mph /  12.9 km/h 83 % 0.0 in /  0 mm
18:36 1.2 °F /  -17.1 °C -1.0 °F /  -18.3 °C 1019.2 in /  34510.1 hPa SSW 1.4 mph /  2.3 km/h 3.2 mph /  5.1 km/h 85 % 0.0 in /  0 mm
18:42 0.9 °F /  -17.3 °C -1.0 °F /  -18.3 °C 1019.2 in /  34510.1 hPa SW 3.2 mph /  5.1 km/h 4.8 mph /  7.7 km/h 87 % 0.0 in /  0 mm
18:48 0.7 °F /  -17.4 °C -1.1 °F /  -18.4 °C 1019.2 in /  34510.1 hPa SSW 3.2 mph /  5.1 km/h 4.8 mph /  7.7 km/h 88 % 0.0 in /  0 mm
18:54 0.5 °F /  -17.5 °C -1.1 °F /  -18.4 °C 1019.2 in /  34510.1 hPa SSW 1.4 mph /  2.3 km/h 3.2 mph /  5.1 km/h 89 % 0.0 in /  0 mm
19:00 0.4 °F /  -17.6 °C -1.0 °F /  -18.3 °C 1019.2 in /  34510.1 hPa SSW 3.2 mph /  5.1 km/h 3.2 mph /  5.1 km/h 90 % 0.0 in /  0 mm
19:06 0.3 °F /  -17.6 °C -1.1 °F /  -18.4 °C 1019.2 in /  34510.1 hPa SSW 3.2 mph /  5.1 km/h 3.2 mph /  5.1 km/h 90 % 0.0 in /  0 mm
19:12 0.5 °F /  -17.5 °C -0.8 °F /  -18.2 °C 1019.5 in /  34520.3 hPa SW 3.2 mph /  5.1 km/h 8.0 mph /  12.9 km/h 91 % 0.0 in /  0 mm
19:18 0.9 °F /  -17.3 °C -0.7 °F /  -18.2 °C 1019.5 in /  34520.3 hPa SW 7.9 mph /  12.7 km/h 8.0 mph /  12.9 km/h 89 % 0.0 in /  0 mm
19:24 1.1 °F /  -17.2 °C -0.7 °F /  -18.2 °C 1019.5 in /  34520.3 hPa SW 6.4 mph /  10.3 km/h 8.0 mph /  12.9 km/h 88 % 0.0 in /  0 mm
19:30 0.9 °F /  -17.3 °C -0.9 °F /  -18.3 °C 1019.2 in /  34510.1 hPa SSW 4.7 mph /  7.6 km/h 6.4 mph /  10.3 km/h 88 % 0.0 in /  0 mm
19:36 0.7 °F /  -17.4 °C -0.9 °F /  -18.3 °C 1019.5 in /  34520.3 hPa SSW 3.2 mph /  5.1 km/h 6.4 mph /  10.3 km/h 89 % 0.0 in /  0 mm
19:42 0.6 °F /  -17.4 °C -1.0 °F /  -18.3 °C 1019.5 in /  34520.3 hPa South 3.2 mph /  5.1 km/h 3.2 mph /  5.1 km/h 89 % 0.0 in /  0 mm
19:48 0.2 °F /  -17.7 °C -1.2 °F /  -18.4 °C 1019.2 in /  34510.1 hPa South 1.4 mph /  2.3 km/h 1.6 mph /  2.6 km/h 90 % 0.0 in /  0 mm
19:54 0.1 °F /  -17.7 °C -1.3 °F /  -18.5 °C 1019.2 in /  34510.1 hPa South 1.4 mph /  2.3 km/h 3.2 mph /  5.1 km/h 90 % 0.0 in /  0 mm
20:00 0.0 °F /  -17.8 °C -1.3 °F /  -18.5 °C 1019.2 in /  34510.1 hPa SSW 1.4 mph /  2.3 km/h 1.6 mph /  2.6 km/h 91 % 0.0 in /  0 mm
20:06 -0.2 °F /  -17.9 °C -1.5 °F /  -18.6 °C 1019.2 in /  34510.1 hPa SSW 3.2 mph /  5.1 km/h 3.2 mph /  5.1 km/h 91 % 0.0 in /  0 mm
20:12 -0.1 °F /  -17.8 °C -1.2 °F /  -18.4 °C 1019.2 in /  34510.1 hPa SW 4.7 mph /  7.6 km/h 4.8 mph /  7.7 km/h 92 % 0.0 in /  0 mm
20:18 0.0 °F /  -17.8 °C -1.1 °F /  -18.4 °C 1019.2 in /  34510.1 hPa SSW 4.7 mph /  7.6 km/h 6.4 mph /  10.3 km/h 92 % 0.0 in /  0 mm
20:24 0.1 °F /  -17.7 °C -1.0 °F /  -18.3 °C 1018.8 in /  34496.6 hPa SSW 3.2 mph /  5.1 km/h 8.0 mph /  12.9 km/h 92 % 0.0 in /  0 mm
20:30 0.1 °F /  -17.7 °C -1.2 °F /  -18.4 °C 1018.8 in /  34496.6 hPa SSW 3.2 mph /  5.1 km/h 4.8 mph /  7.7 km/h 91 % 0.0 in /  0 mm
20:36 -0.1 °F /  -17.8 °C -1.4 °F /  -18.6 °C 1018.8 in /  34496.6 hPa SSW 1.4 mph /  2.3 km/h 6.4 mph /  10.3 km/h 91 % 0.0 in /  0 mm
20:42 -0.1 °F /  -17.8 °C -1.2 °F /  -18.4 °C 1018.8 in /  34496.6 hPa SSW 3.2 mph /  5.1 km/h 4.8 mph /  7.7 km/h 92 % 0.0 in /  0 mm
20:48 -0.1 °F /  -17.8 °C -1.2 °F /  -18.4 °C 1018.8 in /  34496.6 hPa SW 3.2 mph /  5.1 km/h 4.8 mph /  7.7 km/h 92 % 0.0 in /  0 mm
20:54 -0.1 °F /  -17.8 °C -1.2 °F /  -18.4 °C 1018.8 in /  34496.6 hPa SSW 4.7 mph /  7.6 km/h 4.8 mph /  7.7 km/h 92 % 0.0 in /  0 mm
21:00 0.1 °F /  -17.7 °C -1.0 °F /  -18.3 °C 1018.8 in /  34496.6 hPa SSW 3.2 mph /  5.1 km/h 6.4 mph /  10.3 km/h 92 % 0.0 in /  0 mm
21:06 0.1 °F /  -17.7 °C -1.2 °F /  -18.4 °C 1018.5 in /  34486.4 hPa South 1.4 mph /  2.3 km/h 1.6 mph /  2.6 km/h 91 % 0.0 in /  0 mm
21:12 0.2 °F /  -17.7 °C -0.9 °F /  -18.3 °C 1018.5 in /  34486.4 hPa SSW 1.4 mph /  2.3 km/h 3.2 mph /  5.1 km/h 92 % 0.0 in /  0 mm
21:18 0.3 °F /  -17.6 °C -1.0 °F /  -18.3 °C 1018.5 in /  34486.4 hPa South 1.4 mph /  2.3 km/h 6.4 mph /  10.3 km/h 91 % 0.0 in /  0 mm
21:24 0.3 °F /  -17.6 °C -1.0 °F /  -18.3 °C 1018.5 in /  34486.4 hPa SSW 1.4 mph /  2.3 km/h 4.8 mph /  7.7 km/h 91 % 0.0 in /  0 mm
21:30 0.4 °F /  -17.6 °C -0.9 °F /  -18.3 °C 1018.5 in /  34486.4 hPa SSW 3.2 mph /  5.1 km/h 6.4 mph /  10.3 km/h 91 % 0.0 in /  0 mm
21:36 0.4 °F /  -17.6 °C -0.9 °F /  -18.3 °C 1018.2 in /  34476.3 hPa SSW 6.4 mph /  10.3 km/h 6.4 mph /  10.3 km/h 91 % 0.0 in /  0 mm
21:42 0.4 °F /  -17.6 °C -0.9 °F /  -18.3 °C 1018.2 in /  34476.3 hPa South 4.7 mph /  7.6 km/h 8.0 mph /  12.9 km/h 91 % 0.0 in /  0 mm
21:48 0.5 °F /  -17.5 °C -0.8 °F /  -18.2 °C 1018.2 in /  34476.3 hPa SSW 11.1 mph /  17.9 km/h 11.3 mph /  18.2 km/h 91 % 0.0 in /  0 mm
21:54 0.6 °F /  -17.4 °C -0.9 °F /  -18.3 °C 1017.8 in /  34462.7 hPa SSW 6.4 mph /  10.3 km/h 12.9 mph /  20.8 km/h 90 % 0.0 in /  0 mm
22:00 0.6 °F /  -17.4 °C -0.9 °F /  -18.3 °C 1017.8 in /  34462.7 hPa SSW 3.2 mph /  5.1 km/h 6.4 mph /  10.3 km/h 90 % 0.0 in /  0 mm
22:06 0.4 °F /  -17.6 °C -0.9 °F /  -18.3 °C 1017.8 in /  34462.7 hPa SSE 1.4 mph /  2.3 km/h 4.8 mph /  7.7 km/h 91 % 0.0 in /  0 mm
22:12 0.4 °F /  -17.6 °C -0.9 °F /  -18.3 °C 1017.5 in /  34452.6 hPa Calm   1.6 mph /  2.6 km/h 91 % 0.0 in /  0 mm
22:20 0.5 °F /  -17.5 °C -0.8 °F /  -18.2 °C 1017.5 in /  34452.6 hPa South 3.2 mph /  5.1 km/h 4.8 mph /  7.7 km/h 91 % 0.0 in /  0 mm
22:26 0.6 °F /  -17.4 °C -0.7 °F /  -18.2 °C 1017.2 in /  34442.4 hPa SSW 4.7 mph /  7.6 km/h 8.0 mph /  12.9 km/h 91 % 0.0 in /  0 mm
22:32 0.7 °F /  -17.4 °C -0.8 °F /  -18.2 °C 1017.2 in /  34442.4 hPa SW 11.1 mph /  17.9 km/h 11.3 mph /  18.2 km/h 90 % 0.0 in /  0 mm
22:38 0.8 °F /  -17.3 °C -0.8 °F /  -18.2 °C 1017.2 in /  34442.4 hPa SSW 9.7 mph /  15.6 km/h 12.9 mph /  20.8 km/h 89 % 0.0 in /  0 mm
22:44 0.8 °F /  -17.3 °C -0.8 °F /  -18.2 °C 1017.2 in /  34442.4 hPa SW 7.9 mph /  12.7 km/h 16.1 mph /  25.9 km/h 89 % 0.0 in /  0 mm
22:50 0.9 °F /  -17.3 °C -0.9 °F /  -18.3 °C 1017.2 in /  34442.4 hPa SW 9.7 mph /  15.6 km/h 14.5 mph /  23.3 km/h 88 % 0.0 in /  0 mm
22:56 0.9 °F /  -17.3 °C -0.7 °F /  -18.2 °C 1017.2 in /  34442.4 hPa SW 9.7 mph /  15.6 km/h 14.5 mph /  23.3 km/h 89 % 0.0 in /  0 mm
23:02 0.8 °F /  -17.3 °C -0.8 °F /  -18.2 °C 1017.2 in /  34442.4 hPa SW 7.9 mph /  12.7 km/h 11.3 mph /  18.2 km/h 89 % 0.0 in /  0 mm
23:08 0.9 °F /  -17.3 °C -0.7 °F /  -18.2 °C 1017.2 in /  34442.4 hPa SSW 7.9 mph /  12.7 km/h 9.7 mph /  15.6 km/h 89 % 0.0 in /  0 mm
23:14 0.9 °F /  -17.3 °C -0.7 °F /  -18.2 °C 1017.2 in /  34442.4 hPa SSW 4.7 mph /  7.6 km/h 11.3 mph /  18.2 km/h 89 % 0.0 in /  0 mm
23:20 0.8 °F /  -17.3 °C -0.7 °F /  -18.2 °C 1017.2 in /  34442.4 hPa SW 6.4 mph /  10.3 km/h 9.7 mph /  15.6 km/h 90 % 0.0 in /  0 mm
23:26 0.8 °F /  -17.3 °C -0.7 °F /  -18.2 °C 1016.8 in /  34428.8 hPa SSW 6.4 mph /  10.3 km/h 9.7 mph /  15.6 km/h 90 % 0.0 in /  0 mm
23:32 0.7 °F /  -17.4 °C -0.6 °F /  -18.1 °C 1016.8 in /  34428.8 hPa SSE 1.4 mph /  2.3 km/h 6.4 mph /  10.3 km/h 91 % 0.0 in /  0 mm
23:39 0.6 °F /  -17.4 °C -0.7 °F /  -18.2 °C 1016.5 in /  34418.7 hPa SSW 11.1 mph /  17.9 km/h 11.3 mph /  18.2 km/h 91 % 0.0 in /  0 mm
23:45 0.7 °F /  -17.4 °C -0.5 °F /  -18.1 °C 1016.5 in /  34418.7 hPa SSW 7.9 mph /  12.7 km/h 11.3 mph /  18.2 km/h 92 % 0.0 in /  0 mm
23:51 0.8 °F /  -17.3 °C -0.4 °F /  -18 °C 1016.5 in /  34418.7 hPa SW 9.7 mph /  15.6 km/h 16.1 mph /  25.9 km/h 92 % 0.0 in /  0 mm
23:57 0.7 °F /  -17.4 °C -0.5 °F /  -18.1 °C 1016.1 in /  34405.1 hPa SW 11.1 mph /  17.9 km/h 16.1 mph /  25.9 km/h 92 % 0.0 in /  0 mm
Meteo18
Compliments of Weather Underground - 4 mb

Script developed by  Jim McMurry - jmcmurry@mwt.net Adapted for the template by  Wim van der Kuil - Leuven-Template.eu

You find our weather info also at:

European Weather Network

Weather Underground

Equipment we use:

Weather-station
Davis Vue

Weather-program
Meteobridge

Weather-server
Raspberry PI 2 B+

Provider
1 and 1

Davis Vue

Meteobridge

Raspberry PI 2 B+

1 and 1